Weather History for Olathe, KS

Change the Weather History Date:

Sunday, May 26, 2013

  Actual Average Record
Temperature  
Mean Temperature 75 °F 68 °F  
Max Temperature 83 °F 78 °F 92 °F (1964)
Min Temperature 66 °F 58 °F 42 °F (1961)
Degree Days  
Heating Degree Days 0 1  
Month to date heating degree days 155 88  
Since 1 July heating degree days 5085 4919  
Cooling Degree Days 10 4  
Month to date cooling degree days 63 60  
Year to date cooling degree days 74 78  
Growing Degree Days 24 (Base 50)    
Moisture  
Dew Point 65 °F    
Average Humidity 78    
Maximum Humidity 93    
Minimum Humidity 62    
Precipitation  
Precipitation 0.00 in 0.16 in 1.94 in (1955)
Month to date precipitation 2.31 4.57  
Year to date precipitation 11.60 13.88  
Sea Level Pressure  
Sea Level Pressure 29.97 in    
Wind  
Wind Speed 12 mph (South)    
Max Wind Speed 21 mph    
Max Gust Speed 29 mph    
Visibility 10 miles    
Events      
T = Trace of Precipitation, MM = Missing Value Source: NWS Daily Summary

Daily Weather History Graph

Daily Weather History Graph

Search for Another Location

Airport:

Trip Planner

Search our weather history database for the weather conditions in past years. The results will help you decide how hot, cold, wet, or windy it might be!

Date:

Astronomy

May. 26, 2013 Rise Set
Actual Time 5:58 AM CDT 8:34 PM CDT
Civil Twilight 5:27 AM CDT 9:05 PM CDT
Nautical Twilight 4:48 AM CDT 9:43 PM CDT
Astronomical Twilight 4:05 AM CDT 10:27 PM CDT
Moon 10:22 PM CDT (5/26) 7:28 AM CDT (5/26)
Length of Visible Light 15h 37m
Length of Day
14h 35m
Waning Gibbous, 96% of the Moon is Illuminated
May 26
Waning Gibbous
May 31
Last Quarter
Jun 8
New
Jun 16
First Quarter
Jun 23
Full

Hourly Weather History & Observations

Time (CDT) Temp. Heat Index Dew Point Humidity Pressure Visibility Wind Dir Wind Speed Gust Speed Precip Events Conditions
12:53 AM 68.0 °F - 63.0 °F 84% 30.04 in 10.0 mi South 5.8 mph - N/A   Partly Cloudy
1:53 AM 69.1 °F - 64.0 °F 84% 30.01 in 10.0 mi South 10.4 mph - N/A   Clear
2:53 AM 69.1 °F - 64.0 °F 84% 30.02 in 10.0 mi South 9.2 mph - N/A   Clear
3:53 AM 66.9 °F - 63.0 °F 87% 30.02 in 10.0 mi South 6.9 mph - N/A   Clear
4:53 AM 66.9 °F - 64.0 °F 90% 29.99 in 9.0 mi South 11.5 mph - N/A   Clear
5:48 AM 66.2 °F - 64.4 °F 94% 30.02 in 9.0 mi South 11.5 mph - N/A   Mostly Cloudy
5:53 AM 66.9 °F - 64.0 °F 90% 29.99 in 9.0 mi South 10.4 mph - N/A   Mostly Cloudy
6:23 AM 69.8 °F - 64.4 °F 83% 30.02 in 9.0 mi South 11.5 mph 19.6 mph N/A   Scattered Clouds
6:53 AM 69.1 °F - 64.0 °F 84% 29.99 in 9.0 mi South 12.7 mph - N/A   Scattered Clouds
7:53 AM 70.0 °F - 64.0 °F 81% 29.99 in 9.0 mi South 11.5 mph - N/A   Partly Cloudy
8:53 AM 72.0 °F - 64.9 °F 78% 30.00 in 10.0 mi South 12.7 mph 18.4 mph N/A   Scattered Clouds
9:24 AM 73.4 °F - 64.4 °F 73% 30.03 in 10.0 mi SSW 10.4 mph - N/A   Mostly Cloudy
9:53 AM 73.0 °F - 66.0 °F 79% 30.00 in 10.0 mi South 10.4 mph - N/A   Overcast
10:38 AM 75.2 °F - 66.2 °F 73% 30.02 in 10.0 mi South 12.7 mph - N/A   Overcast
10:53 AM 77.0 °F - 66.9 °F 71% 29.98 in 10.0 mi South 12.7 mph 23.0 mph N/A   Mostly Cloudy
11:02 AM 77.0 °F - 66.2 °F 69% 30.01 in 10.0 mi South 15.0 mph 24.2 mph N/A   Mostly Cloudy
11:16 AM 77.0 °F - 66.2 °F 69% 30.01 in 10.0 mi South 20.7 mph 28.8 mph N/A   Mostly Cloudy
11:53 AM 78.1 °F - 66.0 °F 66% 29.99 in 10.0 mi South 15.0 mph 24.2 mph N/A   Mostly Cloudy
12:53 PM 79.0 °F - 66.0 °F 64% 29.98 in 10.0 mi SSW 19.6 mph 26.5 mph N/A   Mostly Cloudy
1:53 PM 81.0 °F 83.3 °F 66.9 °F 62% 29.96 in 10.0 mi South 16.1 mph 25.3 mph N/A   Partly Cloudy
2:53 PM 82.0 °F 84.9 °F 68.0 °F 62% 29.95 in 10.0 mi South 13.8 mph 21.9 mph N/A   Mostly Cloudy
3:53 PM 80.1 °F 82.3 °F 66.9 °F 64% 29.93 in 10.0 mi SSW 16.1 mph 23.0 mph N/A   Scattered Clouds
4:53 PM 81.0 °F 83.3 °F 66.9 °F 62% 29.92 in 10.0 mi South 13.8 mph 25.3 mph N/A   Scattered Clouds
5:53 PM 80.1 °F 82.3 °F 66.9 °F 64% 29.89 in 10.0 mi South 11.5 mph 24.2 mph N/A   Clear
6:53 PM 79.0 °F - 66.9 °F 66% 29.88 in 10.0 mi South 11.5 mph - N/A   Clear
7:53 PM 78.1 °F - 66.0 °F 66% 29.88 in 10.0 mi South 11.5 mph - N/A   Scattered Clouds
8:53 PM 75.0 °F - 66.0 °F 73% 29.89 in 10.0 mi South 11.5 mph - N/A   Partly Cloudy
9:53 PM 73.9 °F - 64.9 °F 73% 29.91 in 10.0 mi South 11.5 mph - N/A   Clear
10:53 PM 73.0 °F - 64.0 °F 73% 29.93 in 10.0 mi SSE 9.2 mph - N/A   Scattered Clouds
11:53 PM 73.0 °F - 64.0 °F 73% 29.90 in 10.0 mi South 10.4 mph - N/A   Clear